This is the latest recevied weather packets stored in our database for station/object KA9CBS. If no packets are shown the sender has not sent any weather packets the latest 10 day(s).
| Time | Temp. | Humidity | Pressure | Rain* | Wind** | Luminosity | Snow |
|---|---|---|---|---|---|---|---|
| 1777839121 | 19.44° C | 47% | 1015.5 hPa | 0 mm | - | 661 W/m² | - |
| 1777838817 | 18.89° C | 47% | 1015.8 hPa | 0 mm | - | 665 W/m² | - |
| 1777838513 | 18.89° C | 49% | 1016 hPa | 0 mm | - | 688 W/m² | - |
| 1777838205 | 18.89° C | 48% | 1016 hPa | 0 mm | - | 691 W/m² | - |
| 1777837902 | 19.44° C | 49% | 1016.3 hPa | 0 mm | - | 630 W/m² | - |
| 1777837599 | 18.89° C | 49% | 1016.3 hPa | 0 mm | - | 699 W/m² | - |
| 1777837294 | 19.44° C | 49% | 1016.5 hPa | 0 mm | - | 678 W/m² | - |
| 1777836991 | 18.89° C | 50% | 1016.6 hPa | 0 mm | - | 712 W/m² | - |
| 1777836686 | 18.89° C | 51% | 1016.9 hPa | 0 mm | - | 715 W/m² | - |
| 1777836382 | 18.89° C | 47% | 1017.2 hPa | 0 mm | - | 707 W/m² | - |
| 1777836078 | 18.89° C | 51% | 1017.2 hPa | 0 mm | - | 692 W/m² | - |
| 1777835770 | 18.89° C | 50% | 1017.5 hPa | 0 mm | - | 669 W/m² | - |
| 1777835466 | 18.33° C | 48% | 1017.3 hPa | 0 mm | - | 655 W/m² | - |
| 1777835164 | 18.33° C | 48% | 1017.3 hPa | 0 mm | - | 664 W/m² | - |
| 1777834860 | 18.33° C | 47% | 1017.6 hPa | 0 mm | - | 733 W/m² | - |
| 1777834557 | 18.33° C | 50% | 1017.5 hPa | 0 mm | - | 740 W/m² | - |
| 1777834257 | 18.33° C | 52% | 1017.7 hPa | 0 mm | - | 730 W/m² | - |
| 1777833952 | 17.78° C | 50% | 1017.9 hPa | 0 mm | - | 722 W/m² | - |
| 1777833649 | 17.78° C | 51% | 1018.1 hPa | 0 mm | - | 726 W/m² | - |
| 1777833346 | 18.33° C | 51% | 1018.1 hPa | 0 mm | - | 743 W/m² | - |
| 1777833043 | 17.78° C | 50% | 1018.4 hPa | 0 mm | - | 754 W/m² | - |
| 1777832741 | 17.22° C | 51% | 1018.2 hPa | 0 mm | - | 754 W/m² | - |
| 1777832439 | 17.78° C | 52% | 1018.6 hPa | 0 mm | - | 746 W/m² | - |
| 1777832130 | 17.22° C | 51% | 1018.6 hPa | 0 mm | - | 751 W/m² | - |
| 1777831826 | 17.78° C | 53% | 1018.6 hPa | 0 mm | - | 753 W/m² | - |
* Rain latest hour (hover to see other rain measurements)
** Current wind speed in m/s (hover to see current wind gust speed)